Location: Bald Rock
(37.3738°N, 119.9354°W)
Time: 03:54:54
(UTC+00:00)

Cosmos 2333 Rocket - Visible Passes

Search period start: 08 December 2025 00:00
Search period end: 18 December 2025 00:00
Orbit: 837 x 865 km, 70.8° (Epoch: 07 December)

Date Brightness Start Highest point End Pass type
(mag) Time Alt. Az. Time Alt. Az. Time Alt. Az.
08 Dec 4.2 13:05:44 10° N 13:10:26 25° ENE 13:15:04 10° ESE visible
09 Dec 4.2 12:53:30 10° N 12:58:12 25° ENE 13:02:51 10° ESE visible
10 Dec 4.1 12:41:17 10° N 12:45:59 25° ENE 12:50:37 10° ESE visible
10 Dec 2.6 14:25:00 10° NW 14:30:26 45° WSW 14:35:50 10° S visible
11 Dec 4.2 03:31:15 10° S 03:32:34 18° S 03:32:34 18° S visible
11 Dec 4.1 12:29:53 13° N 12:33:46 25° ENE 12:38:25 10° ESE visible
11 Dec 2.6 14:12:46 10° NW 14:18:13 45° WSW 14:23:36 10° S visible
12 Dec 3.5 03:19:01 10° S 03:21:43 29° S 03:21:43 29° S visible
12 Dec 4.1 12:18:38 17° NNE 12:21:33 25° ENE 12:26:11 10° ESE visible
12 Dec 2.6 14:00:41 11° NW 14:06:00 45° WSW 14:11:23 10° S visible
13 Dec 2.8 03:06:48 10° S 03:10:51 47° S 03:10:51 47° S visible
13 Dec 4.1 12:07:27 21° NNE 12:09:19 25° ENE 12:13:58 10° ESE visible
13 Dec 2.6 13:49:32 16° NW 13:53:46 45° WSW 13:59:09 10° S visible
14 Dec 2.1 02:54:34 10° S 02:59:58 68° SE 02:59:58 68° SE visible
14 Dec 5.0 04:41:20 10° W 04:42:02 12° W 04:42:02 12° W visible
14 Dec 4.0 11:56:22 24° NE 11:57:05 25° ENE 12:01:44 10° ESE visible
14 Dec 2.5 13:38:26 24° NW 13:41:33 44° WSW 13:46:55 10° S visible
15 Dec 2.1 02:42:21 10° SSW 02:48:01 69° ESE 02:49:00 58° ENE visible
15 Dec 4.8 04:29:07 10° W 04:31:05 15° WNW 04:31:05 15° WNW visible
15 Dec 4.1 11:45:21 25° ENE 11:45:21 25° ENE 11:49:32 10° ESE visible
15 Dec 2.5 13:27:25 33° WNW 13:29:20 44° WSW 13:34:42 10° S visible
16 Dec 2.1 02:30:07 10° SSW 02:35:48 69° ESE 02:38:01 38° NE visible
16 Dec 4.6 04:16:54 10° W 04:20:05 17° WNW 04:20:05 17° WNW visible
16 Dec 4.4 11:34:24 22° E 11:34:24 22° E 11:37:18 10° ESE visible
16 Dec 2.5 13:16:29 43° W 13:17:06 44° WSW 13:22:28 10° S visible
17 Dec 2.2 02:17:53 10° SSW 02:23:35 69° ESE 02:26:55 26° NNE visible
17 Dec 4.5 04:04:40 10° W 04:08:25 17° NW 04:08:59 17° NW visible
17 Dec 4.7 11:23:30 16° E 11:23:30 16° E 11:25:04 10° ESE visible
17 Dec 2.6 13:05:35 42° SW 13:05:35 42° SW 13:10:14 10° S visible
